| time (UTC) | temp F | wind direction | speed MPH | gust MPH | rain 1hr in | rain 24hr in | rain mn in | humidity % | barometer mb |
| 20260510023044 | 80 | 275 | 1.0 | 2.0 | 0.00 | 0.00 | 0.00 | 39 | 1012.6 |
| 20260510021544 | 84 | 0 | 0.0 | 3.0 | 0.00 | 0.00 | 0.00 | 40 | 1012.5 |
| 20260510020044 | 87 | 268 | 0.0 | 3.0 | 0.00 | 0.00 | 0.00 | 37 | 1012.4 |
| 20260510014542 | 89 | 194 | 1.0 | 3.0 | 0.00 | 0.00 | 0.00 | 26 | 1012.3 |
| 20260510013038 | 88 | 270 | 0.0 | 3.0 | 0.00 | 0.00 | 0.00 | 31 | 1012.4 |
| 20260510011547 | 88 | 298 | 2.0 | 5.0 | 0.00 | 0.00 | 0.00 | 27 | 1012.5 |
| 20260510010043 | 88 | 188 | 2.0 | 9.0 | 0.00 | 0.00 | 0.00 | 24 | 1012.8 |
| 20260510004547 | 88 | 174 | 2.0 | 9.0 | 0.00 | 0.00 | 0.00 | 25 | 1012.9 |
| 20260510003040 | 88 | 205 | 1.0 | 6.0 | 0.00 | 0.00 | 0.00 | 26 | 1012.8 |
| 20260510001537 | 88 | 207 | 2.0 | 6.0 | 0.00 | 0.00 | 0.00 | 27 | 1012.8 |
| 20260510000044 | 88 | 194 | 2.0 | 7.0 | 0.00 | 0.00 | 0.00 | 25 | 1012.9 |
| 20260509234543 | 88 | 188 | 3.0 | 8.0 | 0.00 | 0.00 | 0.00 | 24 | 1013.0 |
| 20260509233040 | 89 | 200 | 2.0 | 6.0 | 0.00 | 0.00 | 0.00 | 27 | 1013.0 |
| 20260509231540 | 88 | 195 | 1.0 | 6.0 | 0.00 | 0.00 | 0.00 | 21 | 1013.3 |
| 20260509230047 | 88 | 198 | 2.0 | 6.0 | 0.00 | 0.00 | 0.00 | 22 | 1013.4 |
| 20260509224543 | 87 | 213 | 1.0 | 5.0 | 0.00 | 0.00 | 0.00 | 24 | 1013.6 |
| 20260509223036 | 86 | 234 | 2.0 | 4.0 | 0.00 | 0.00 | 0.00 | 28 | 1014.0 |
| 20260509221535 | 85 | 198 | 1.0 | 5.0 | 0.00 | 0.00 | 0.00 | 32 | 1014.1 |
| 20260509220043 | 84 | 177 | 2.0 | 6.0 | 0.00 | 0.00 | 0.00 | 31 | 1014.2 |
| 20260509214541 | 85 | 244 | 1.0 | 4.0 | 0.00 | 0.00 | 0.00 | 31 | 1014.6 |
| 20260509213038 | 84 | 189 | 0.0 | 4.0 | 0.00 | 0.00 | 0.00 | 36 | 1014.8 |
| 20260509211545 | 83 | 88 | 1.0 | 4.0 | 0.00 | 0.00 | 0.00 | 27 | 1015.1 |
| 20260509210059 | 82 | 313 | 2.0 | 4.0 | 0.00 | 0.00 | 0.00 | 29 | 1015.3 |
| 20260509204543 | 81 | 200 | 2.0 | 4.0 | 0.00 | 0.00 | 0.00 | 33 | 1015.4 |
| 20260509203048 | 80 | 0 | 1.0 | 3.0 | 0.00 | 0.00 | 0.00 | 36 | 1015.5 |
| 20260509201548 | 78 | 280 | 1.0 | 5.0 | 0.00 | 0.00 | 0.00 | 41 | 1015.7 |
| 20260509200048 | 77 | 262 | 3.0 | 6.0 | 0.00 | 0.00 | 0.00 | 44 | 1016.0 |
| 20260509194543 | 76 | 177 | 1.0 | 4.0 | 0.00 | 0.00 | 0.00 | 47 | 1016.5 |
| 20260509193044 | 75 | 281 | 1.0 | 7.0 | 0.00 | 0.00 | 0.00 | 48 | 1016.5 |
| 20260509191543 | 74 | 290 | 1.0 | 3.0 | 0.00 | 0.00 | 0.00 | 49 | 1016.9 |
| 20260509190049 | 73 | 277 | 1.0 | 4.0 | 0.00 | 0.00 | 0.00 | 50 | 1017.1 |
| 20260509184552 | 72 | 322 | 0.0 | 5.0 | 0.00 | 0.00 | 0.00 | 52 | 1017.4 |
| 20260509183044 | 71 | 202 | 0.0 | 2.0 | 0.00 | 0.00 | 0.00 | 55 | 1017.5 |
| 20260509181555 | 70 | 194 | 1.0 | 3.0 | 0.00 | 0.00 | 0.00 | 55 | 1017.8 |
| 20260509180047 | 69 | 244 | 0.0 | 3.0 | 0.00 | 0.00 | 0.00 | 55 | 1017.8 |
| 20260509174549 | 68 | 165 | 1.0 | 4.0 | 0.00 | 0.00 | 0.00 | 56 | 1018.0 |
| 20260509173040 | 66 | 186 | 0.0 | 2.0 | 0.00 | 0.00 | 0.00 | 61 | 1018.3 |
| 20260509171537 | 64 | 113 | 0.0 | 2.0 | 0.00 | 0.00 | 0.00 | 67 | 1018.5 |
| 20260509170048 | 60 | 113 | 1.0 | 2.0 | 0.00 | 0.00 | 0.00 | 71 | 1018.8 |
| 20260509164544 | 58 | 0 | 0.0 | 2.0 | 0.00 | 0.00 | 0.00 | 77 | 1019.0 |
| 20260509163039 | 56 | 111 | 0.0 | 2.0 | 0.00 | 0.00 | 0.00 | 78 | 1019.3 |
| 20260509161537 | 54 | 108 | 0.0 | 2.0 | 0.00 | 0.00 | 0.00 | 82 | 1019.3 |
| 20260509160038 | 52 | 0 | 0.0 | 1.0 | 0.00 | 0.00 | 0.00 | 85 | 1019.5 |
| 20260509154546 | 51 | 0 | 0.0 | 2.0 | 0.00 | 0.00 | 0.00 | 87 | 1019.7 |
| 20260509153057 | 50 | 0 | 0.0 | 1.0 | 0.00 | 0.00 | 0.00 | 89 | 1019.8 |
| 20260509151547 | 48 | 0 | 0.0 | 0.0 | 0.00 | 0.00 | 0.00 | 91 | 1020.1 |
| 20260509150037 | 47 | 0 | 0.0 | 0.0 | 0.00 | 0.00 | 0.00 | 90 | 1020.2 |
| 20260509144545 | 47 | 0 | 0.0 | 0.0 | 0.00 | 0.00 | 0.00 | 91 | 1020.4 |
| 20260509143043 | 46 | 0 | 0.0 | 0.0 | 0.00 | 0.00 | 0.00 | 91 | 1020.3 |
| 20260509141542 | 46 | 0 | 0.0 | 0.0 | 0.00 | 0.00 | 0.00 | 92 | 1020.3 |
| 20260509140048 | 45 | 0 | 0.0 | 1.0 | 0.00 | 0.00 | 0.00 | 91 | 1020.4 |
| 20260509134544 | 45 | 0 | 0.0 | 0.0 | 0.00 | 0.00 | 0.00 | 91 | 1020.3 |
| 20260509133037 | 45 | 0 | 0.0 | 1.0 | 0.00 | 0.00 | 0.00 | 90 | 1020.2 |
| 20260509131539 | 45 | 0 | 0.0 | 2.0 | 0.00 | 0.00 | 0.00 | 91 | 1020.2 |
| 20260509130042 | 45 | 0 | 0.0 | 0.0 | 0.00 | 0.00 | 0.00 | 90 | 1020.3 |
| 20260509124541 | 45 | 0 | 0.0 | 1.0 | 0.00 | 0.00 | 0.00 | 90 | 1020.1 |
| 20260509123037 | 46 | 107 | 0.0 | 1.0 | 0.00 | 0.00 | 0.00 | 90 | 1020.3 |
| 20260509121540 | 46 | 0 | 0.0 | 1.0 | 0.00 | 0.00 | 0.00 | 90 | 1020.3 |
| 20260509120057 | 46 | 0 | 0.0 | 0.0 | 0.00 | 0.00 | 0.00 | 89 | 1020.4 |
| 20260509114542 | 46 | 0 | 0.0 | 0.0 | 0.00 | 0.00 | 0.00 | 88 | 1020.5 |
| 20260509113042 | 47 | 0 | 0.0 | 0.0 | 0.00 | 0.00 | 0.00 | 87 | 1020.5 |
| 20260509111539 | 48 | 0 | 0.0 | 0.0 | 0.00 | 0.00 | 0.00 | 87 | 1020.6 |
| 20260509110047 | 48 | 0 | 0.0 | 0.0 | 0.00 | 0.00 | 0.00 | 88 | 1020.8 |
| 20260509104545 | 48 | 0 | 0.0 | 1.0 | 0.00 | 0.00 | 0.00 | 87 | 1020.7 |
| 20260509103044 | 49 | 0 | 0.0 | 0.0 | 0.00 | 0.00 | 0.00 | 86 | 1020.6 |
| 20260509101552 | 49 | 0 | 0.0 | 0.0 | 0.00 | 0.00 | 0.00 | 86 | 1020.5 |
| 20260509100044 | 49 | 0 | 0.0 | 0.0 | 0.00 | 0.00 | 0.00 | 86 | 1020.6 |
| 20260509094537 | 49 | 0 | 0.0 | 0.0 | 0.00 | 0.00 | 0.00 | 85 | 1020.7 |
| 20260509093045 | 50 | 0 | 0.0 | 0.0 | 0.00 | 0.00 | 0.00 | 84 | 1020.5 |
| 20260509091557 | 50 | 0 | 0.0 | 0.0 | 0.00 | 0.00 | 0.00 | 84 | 1020.5 |
| 20260509090045 | 51 | 0 | 0.0 | 0.0 | 0.00 | 0.00 | 0.00 | 83 | 1020.7 |
| 20260509084545 | 51 | 0 | 0.0 | 0.0 | 0.00 | 0.00 | 0.00 | 83 | 1020.8 |
| 20260509083048 | 52 | 0 | 0.0 | 0.0 | 0.00 | 0.00 | 0.00 | 81 | 1020.8 |
| 20260509081545 | 52 | 0 | 0.0 | 0.0 | 0.00 | 0.00 | 0.00 | 80 | 1020.8 |
| 20260509080050 | 53 | 0 | 0.0 | 1.0 | 0.00 | 0.00 | 0.00 | 79 | 1020.7 |
| 20260509074551 | 54 | 0 | 0.0 | 0.0 | 0.00 | 0.00 | 0.00 | 78 | 1020.6 |
| 20260509073108 | 54 | 0 | 0.0 | 0.0 | 0.00 | 0.00 | 0.00 | 76 | 1020.6 |
| 20260509071539 | 55 | 0 | 0.0 | 0.0 | 0.00 | 0.00 | 0.00 | 75 | 1020.7 |
| 20260509070037 | 56 | 0 | 0.0 | 0.0 | 0.00 | 0.00 | 0.00 | 74 | 1020.8 |
| 20260509064542 | 56 | 0 | 0.0 | 0.0 | 0.00 | 0.00 | 0.00 | 73 | 1020.8 |
| 20260509063042 | 57 | 0 | 0.0 | 0.0 | 0.00 | 0.00 | 0.00 | 71 | 1020.8 |
| 20260509061540 | 58 | 0 | 0.0 | 0.0 | 0.00 | 0.00 | 0.00 | 68 | 1020.7 |
| 20260509060057 | 59 | 0 | 0.0 | 0.0 | 0.00 | 0.00 | 0.00 | 68 | 1020.7 |
| 20260509054555 | 60 | 0 | 0.0 | 2.0 | 0.00 | 0.00 | 0.00 | 66 | 1020.8 |
| 20260509053042 | 61 | 0 | 0.0 | 2.0 | 0.00 | 0.00 | 0.00 | 64 | 1020.7 |
| 20260509051543 | 62 | 0 | 0.0 | 1.0 | 0.00 | 0.00 | 0.00 | 61 | 1020.5 |
| 20260509050043 | 63 | 0 | 0.0 | 1.0 | 0.00 | 0.00 | 0.00 | 60 | 1020.5 |
| 20260509044547 | 64 | 0 | 0.0 | 1.0 | 0.00 | 0.00 | 0.00 | 57 | 1020.1 |
| 20260509043047 | 65 | 107 | 0.0 | 2.0 | 0.00 | 0.00 | 0.00 | 57 | 1019.8 |
| 20260509041543 | 66 | 0 | 0.0 | 0.0 | 0.00 | 0.00 | 0.00 | 57 | 1019.8 |
| 20260509040059 | 67 | 0 | 0.0 | 2.0 | 0.00 | 0.00 | 0.00 | 55 | 1019.6 |
| 20260509034548 | 67 | 108 | 1.0 | 3.0 | 0.00 | 0.00 | 0.00 | 54 | 1019.3 |
| 20260509033038 | 68 | 0 | 0.0 | 2.0 | 0.00 | 0.00 | 0.00 | 53 | 1018.9 |
| 20260509031537 | 70 | 116 | 0.0 | 4.0 | 0.00 | 0.00 | 0.00 | 52 | 1018.7 |
| 20260509030047 | 71 | 238 | 0.0 | 5.0 | 0.00 | 0.00 | 0.00 | 50 | 1018.4 |
| 20260509024544 | 72 | 213 | 1.0 | 3.0 | 0.00 | 0.00 | 0.00 | 50 | 1018.0 |